Location: White Mills Observatory
(37.5374°N, 86.0303°W)
Time: 06:51:06
(UTC-04:00)

Amateur Radio Satellites - All Passes

Search period start: 24 July 2017 06:21
Search period end: 25 July 2017 06:21
Location: White Mills Observatory, 37.5374°N, 86.0303°W

Satellite Date Start Highest point End Downlink Frequencies (MHz)
Time Altitude Azimuth
AO-7 24 Jul 06:28:50 06:36:38 45° 296° (WNW) 06:44:23 .
DOVE 4 24 Jul 06:32:20 06:36:56 30° 95° (E) 06:41:23 437.250
CUBESAT XI-V 24 Jul 06:37:05 06:40:06 17° 267° (W) 06:43:10 437.345
PCSat 24 Jul 06:46:06 06:51:26 60° 300° (WNW) 06:56:49 145.827
XW-2B 24 Jul 06:48:37 06:49:50 11° 92° (E) 06:51:03 145.730 - 145.750
KKS-1 24 Jul 06:55:11 06:58:18 19° 266° (W) 07:01:26 437.445
XW-2C 24 Jul 07:04:32 07:07:16 19° 95° (E) 07:09:59 145.795 - 145.815
CUTE-I 24 Jul 07:05:42 07:09:40 21° 94° (E) 07:13:36 437.470
NUDT-PHONESAT 24 Jul 07:17:02 07:19:45 19° 95° (E) 07:22:26 437.300
STRAND 1 24 Jul 07:19:00 07:22:45 21° 65° (ENE) 07:26:30 437.568
LilacSat-2 24 Jul 07:25:51 07:29:24 38° 98° (E) 07:32:57 437.200
STARS 24 Jul 07:28:10 07:31:20 19° 266° (W) 07:34:32 437.465
KAITUO 1B 24 Jul 07:29:13 07:32:29 29° 97° (E) 07:35:45 145.475/437.950
XW-2F 24 Jul 07:42:34 07:46:16 57° 101° (E) 07:49:57 145.980 - 146.000
SO-50 24 Jul 07:49:56 07:54:28 75° 302° (WNW) 07:58:59 436.795
YUBILEINY 24 Jul 07:50:04 07:58:45 68° 267° (W) 08:07:20 435.215
DOVE 4 24 Jul 08:09:57 08:14:29 30° 291° (WNW) 08:18:54 437.250
XW-2D 24 Jul 08:10:31 08:14:11 52° 285° (WNW) 08:17:51 145.860 - 145.880
XW-2B 24 Jul 08:20:38 08:24:11 40° 286° (WNW) 08:27:43 145.730 - 145.750
CUTE 1.7 + AOD 2 24 Jul 08:33:43 08:37:39 36° 97° (E) 08:41:34 437.475
XW-2C 24 Jul 08:38:19 08:41:23 24° 289° (WNW) 08:44:28 145.795 - 145.815
CUTE-I 24 Jul 08:44:48 08:49:53 45° 289° (WNW) 08:54:55 437.470
HO-68 24 Jul 08:46:07 08:53:05 53° 101° (E) 09:00:01 435.675
SEEDS 24 Jul 08:48:09 08:51:59 33° 97° (E) 08:55:48 437.485
NUDT-PHONESAT 24 Jul 08:50:38 08:53:33 22° 289° (WNW) 08:56:28 437.300
XW-2A 24 Jul 08:51:54 08:54:56 31° 98° (E) 08:57:55 145.665 - 145.685
STRAND 1 24 Jul 08:56:40 09:01:35 44° 261° (W) 09:06:30 437.568
LilacSat-2 24 Jul 09:01:33 09:03:19 13° 293° (WNW) 09:05:06 437.200
UWE-3 24 Jul 09:02:38 09:05:50 21° 94° (E) 09:08:59 435.000/436.395/437.385
KAITUO 1B 24 Jul 09:03:55 09:06:14 16° 291° (WNW) 09:08:33 145.475/437.950
ZACube-1 24 Jul 09:19:09 09:21:54 17° 93° (E) 09:24:40 437.345
AAUSAT CUBESAT 2 24 Jul 09:34:47 09:38:52 52° 100° (E) 09:42:56 437.432
SO-50 24 Jul 09:35:20 09:35:41 10° 320° (NW) 09:36:02 436.795
CUBEBUG 2 24 Jul 09:37:56 09:42:12 79° 283° (WNW) 09:46:20 437.445
Oscar 11 24 Jul 09:46:37 09:50:11 25° 96° (E) 09:53:45 .
AO-73 24 Jul 09:59:00 10:03:00 46° 99° (E) 10:06:57 145.935
FO-29 24 Jul 09:59:43 10:06:58 53° 70° (ENE) 10:14:34 435.910
TIGRISAT 24 Jul 10:03:03 10:06:31 21° 68° (ENE) 10:09:58 435.000
CUTE 1.7 + AOD 2 24 Jul 10:10:24 10:13:10 17° 292° (WNW) 10:15:57 437.475
SEEDS 24 Jul 10:24:28 10:27:24 19° 292° (WNW) 10:30:20 437.485
XW-2A 24 Jul 10:26:11 10:27:20 11° 292° (WNW) 10:28:29 145.665 - 145.685
HO-68 24 Jul 10:34:33 10:40:23 28° 298° (WNW) 10:46:13 435.675
M-CUBED/EXP-1 PRIME 24 Jul 10:38:25 10:41:28 27° 65° (ENE) 10:44:44 437.505
UWE-3 24 Jul 10:38:44 10:42:15 27° 290° (WNW) 10:45:44 435.000/436.395/437.385
DELFI C3 24 Jul 10:46:49 10:50:18 28° 96° (E) 10:53:46 145.870
UNISAT 6 24 Jul 10:53:38 10:58:19 82° 75° (ENE) 11:02:55 437.425
ZACube-1 24 Jul 10:54:33 10:58:16 32° 288° (WNW) 11:01:56 437.345
PRISM 24 Jul 11:09:17 11:13:21 76° 257° (WSW) 11:17:29 437.425
AAUSAT CUBESAT 2 24 Jul 11:12:11 11:13:50 12° 295° (WNW) 11:15:30 437.432
Oscar 11 24 Jul 11:22:42 11:26:13 25° 290° (WNW) 11:29:44 .
AIST 2D 24 Jul 11:23:32 11:25:32 15° 69° (ENE) 11:27:33 435.315
EO-88 24 Jul 11:28:11 11:31:46 57° 100° (E) 11:35:20 145.990 - 145.960
POLYITAN 1 24 Jul 11:32:32 11:33:26 11° 64° (ENE) 11:34:20 437.675
AO-73 24 Jul 11:36:54 11:38:48 13° 294° (WNW) 11:40:42 145.935
TIGRISAT 24 Jul 11:38:41 11:42:57 35° 262° (W) 11:47:11 435.000
QB50P2 24 Jul 11:43:37 11:46:15 16° 67° (ENE) 11:48:53 145.880/145.840
FO-29 24 Jul 11:45:42 11:52:09 31° 267° (W) 11:58:56 435.910
NO-84 24 Jul 11:48:51 11:51:36 37° 129° (SE) 11:54:34 435.350 FM
EO-79 24 Jul 11:55:28 11:58:34 20° 68° (ENE) 12:01:40 145.935-145.965
NANOSAT C BR1 24 Jul 11:56:20 11:59:14 18° 67° (ENE) 12:02:08 145.865
M-CUBED/EXP-1 PRIME 24 Jul 12:13:30 12:15:56 17° 262° (W) 12:18:30 437.505
ESTCUBE 1 24 Jul 12:20:11 12:23:28 20° 94° (E) 12:26:45 437.505/2401.250
DELFI C3 24 Jul 12:21:59 12:24:51 19° 291° (WNW) 12:27:43 145.870
AIST 2D 24 Jul 12:55:30 12:58:29 26° 263° (W) 13:01:29 435.315
DUCHIFAT 1 24 Jul 13:03:12 13:07:27 84° 257° (WSW) 13:11:42 145.980
POLYITAN 1 24 Jul 13:04:24 13:08:38 64° 258° (WSW) 13:12:54 437.675
BEESAT 3 24 Jul 13:04:56 13:08:05 23° 112° (ESE) 13:11:17 437.485
LO-87 24 Jul 13:08:52 13:12:24 54° 285° (WNW) 13:15:54 145.935 - 145.965
VELOX 1 24 Jul 13:10:30 13:12:53 14° 92° (E) 13:15:14 145.980
Oscar 19 24 Jul 13:15:11 13:18:26 17° 64° (ENE) 13:21:40 437.125/150
QB50P2 24 Jul 13:17:41 13:21:41 40° 261° (W) 13:25:43 145.880/145.840
AO-85 24 Jul 13:23:08 13:26:54 38° 115° (ESE) 13:30:34 145.980
NO-84 24 Jul 13:26:59 13:29:13 18° 328° (NNW) 13:31:33 435.350 FM
EO-79 24 Jul 13:30:17 13:34:06 31° 263° (W) 13:37:55 145.935-145.965
NANOSAT C BR1 24 Jul 13:30:46 13:34:39 34° 262° (W) 13:38:34 145.865
Gurwin Techsat 1B 24 Jul 13:34:18 13:37:41 17° 63° (ENE) 13:41:04 435.225
BUGSAT 1 24 Jul 13:35:25 13:39:36 62° 75° (ENE) 13:43:47 437.445
BEESAT 2 24 Jul 13:43:04 13:45:57 20° 111° (ESE) 13:48:52 435.950
PCSat 24 Jul 13:55:09 13:56:50 11° 42° (NE) 13:58:31 145.827
ESTCUBE 1 24 Jul 13:56:14 14:00:20 35° 289° (WNW) 14:04:25 437.505/2401.250
SPROUT 24 Jul 14:06:16 14:10:33 76° 102° (ESE) 14:14:47 437.525
50 SAT 24 Jul 14:19:27 14:22:35 32° 98° (E) 14:25:42 437.505
BEESAT 3 24 Jul 14:42:04 14:45:31 27° 308° (NW) 14:49:01 437.485
VELOX 1 24 Jul 14:45:15 14:49:33 47° 287° (WNW) 14:53:48 145.980
RS-15 24 Jul 14:47:23 14:52:57 14° 95° (E) 14:58:32 29.354- 29.394
Oscar 19 24 Jul 14:52:18 14:57:17 54° 260° (W) 15:02:18 437.125/150
DX 1 24 Jul 14:53:10 14:57:31 60° 101° (E) 15:01:49 434.975-435.025
AO-85 24 Jul 15:04:45 15:07:24 17° 311° (NW) 15:10:03 145.980
ITAMSAT 1 24 Jul 15:05:28 15:08:15 15° 62° (ENE) 15:11:01 435.822/435.867
Gurwin Techsat 1B 24 Jul 15:11:54 15:17:07 57° 260° (W) 15:22:22 435.225
BEESAT 2 24 Jul 15:19:52 15:23:28 32° 307° (NW) 15:27:07 435.950
AO-7 24 Jul 15:32:54 15:40:41 46° 64° (ENE) 15:48:31 .
PCSat 24 Jul 15:35:47 15:41:13 71° 61° (ENE) 15:46:36 145.827
UKube-1 24 Jul 15:37:26 15:41:44 63° 285° (WNW) 15:46:00 .
50 SAT 24 Jul 15:53:34 15:54:58 12° 293° (WNW) 15:56:22 437.505
O/OREOS (USA 219) 24 Jul 16:22:35 16:27:03 74° 109° (ESE) 16:31:32 437.305
SO-50 24 Jul 16:22:54 16:27:22 54° 57° (ENE) 16:31:51 436.795
MOZHAYETS 4 24 Jul 16:24:12 16:28:04 27° 96° (E) 16:31:55
DX 1 24 Jul 16:31:31 16:33:08 12° 297° (WNW) 16:34:46 434.975-435.025
ITAMSAT 1 24 Jul 16:41:54 16:47:05 68° 258° (WSW) 16:52:19 435.822/435.867
RS-15 24 Jul 16:51:06 17:03:07 72° 114° (ESE) 17:15:23 29.354- 29.394
BEESAT 24 Jul 16:53:47 16:58:34 78° 103° (ESE) 17:03:18 436.000
CUBESAT XI-V 24 Jul 16:58:46 17:00:22 12° 91° (E) 17:01:57 437.345
ITUPSAT 1 24 Jul 17:06:34 17:11:20 80° 283° (WNW) 17:16:04 437.325
PCSat 24 Jul 17:21:20 17:23:56 14° 257° (WSW) 17:26:30 145.827
AO-7 24 Jul 17:25:51 17:33:27 38° 261° (W) 17:41:07 .
DOVE 4 24 Jul 17:35:43 17:39:34 24° 67° (ENE) 17:43:36 437.250
MOZHAYETS 4 24 Jul 18:01:21 18:05:06 26° 291° (WNW) 18:08:52
SO-50 24 Jul 18:04:54 18:07:21 14° 251° (WSW) 18:09:49 436.795
O/OREOS (USA 219) 24 Jul 18:05:54 18:06:59 11° 306° (NW) 18:08:05 437.305
LilacSat-2 24 Jul 18:06:59 18:09:10 15° 68° (ENE) 18:11:21 437.200
KAITUO 1B 24 Jul 18:09:33 18:10:29 11° 66° (ENE) 18:11:24 145.475/437.950
XW-2F 24 Jul 18:22:06 18:24:52 20° 70° (ENE) 18:27:39 145.980 - 146.000
NO-84 24 Jul 18:23:26 18:26:09 18° 32° (NNE) 18:28:59 435.350 FM
CUTE-I 24 Jul 18:25:23 18:29:56 29° 68° (ENE) 18:34:31 437.470
CUBESAT XI-V 24 Jul 18:33:28 18:38:06 62° 285° (WNW) 18:42:42 437.345
BEESAT 24 Jul 18:34:34 18:35:39 11° 299° (WNW) 18:36:43 436.000
KKS-1 24 Jul 18:46:17 18:50:46 85° 283° (WNW) 18:55:13 437.445
XW-2D 24 Jul 18:49:24 18:53:02 49° 75° (ENE) 18:56:40 145.860 - 145.880
YUBILEINY 24 Jul 18:53:14 19:00:27 29° 83° (E) 19:07:39 435.215
XW-2B 24 Jul 18:59:20 19:03:03 65° 76° (ENE) 19:06:47 145.730 - 145.750
RS-15 24 Jul 19:05:31 19:16:38 38° 318° (NW) 19:27:52 29.354- 29.394
DOVE 4 24 Jul 19:12:37 19:17:00 35° 264° (W) 19:21:39 437.250
HO-68 24 Jul 19:13:01 19:19:13 33° 64° (ENE) 19:25:24 435.675
XW-2C 24 Jul 19:16:39 19:20:22 70° 258° (WSW) 19:24:07 145.795 - 145.815
STARS 24 Jul 19:17:47 19:22:13 88° 106° (ESE) 19:26:35 437.465
CUTE 1.7 + AOD 2 24 Jul 19:24:59 19:28:04 20° 69° (ENE) 19:31:11 437.475
NUDT-PHONESAT 24 Jul 19:26:49 19:30:29 71° 259° (W) 19:34:09 437.300
SEEDS 24 Jul 19:38:37 19:41:26 18° 68° (ENE) 19:44:15 437.485
LilacSat-2 24 Jul 19:39:45 19:43:09 32° 263° (W) 19:46:34 437.200
KAITUO 1B 24 Jul 19:40:31 19:44:02 44° 261° (W) 19:47:35 145.475/437.950
XW-2F 24 Jul 19:55:52 19:58:51 23° 264° (W) 20:01:51 145.980 - 146.000
UWE-3 24 Jul 19:58:06 20:00:52 16° 67° (ENE) 20:03:35 435.000/436.395/437.385
Tancredo 1 24 Jul 19:59:25 20:00:39 12° 129° (SE) 20:01:53 437.200
NO-84 24 Jul 20:00:00 20:03:58 72° 227° (SW) 20:08:11 435.350 FM
CUTE-I 24 Jul 20:05:04 20:09:51 33° 263° (W) 20:14:40 437.470
ZACube-1 24 Jul 20:14:05 20:15:57 12° 65° (ENE) 20:17:47 437.345
AAUSAT CUBESAT 2 24 Jul 20:23:10 20:26:33 26° 70° (ENE) 20:29:58 437.432
CUBEBUG 2 24 Jul 20:33:03 20:37:44 66° 75° (ENE) 20:42:20 437.445
Oscar 11 24 Jul 20:40:21 20:42:57 16° 67° (ENE) 20:45:34 .
YUBILEINY 24 Jul 20:48:04 20:56:41 56° 282° (WNW) 21:05:20 435.215
AO-73 24 Jul 20:52:23 20:56:12 29° 71° (ENE) 20:59:59 145.935
XW-2A 24 Jul 20:53:14 20:56:30 46° 260° (W) 20:59:46 145.665 - 145.685
HO-68 24 Jul 20:59:52 21:06:40 45° 260° (W) 21:13:31 435.675
CUTE 1.7 + AOD 2 24 Jul 21:00:03 21:03:42 29° 263° (W) 21:07:22 437.475
ISS 24 Jul 21:03:46 21:06:22 23° 131° (SE) 21:09:00 437.550
STRAND 1 24 Jul 21:08:48 21:13:56 74° 102° (ESE) 21:19:00 437.568
SEEDS 24 Jul 21:13:07 21:16:51 32° 263° (W) 21:20:37 437.485
RS-15 24 Jul 21:26:44 21:34:20 18° 351° (N) 21:41:51 29.354- 29.394
DELFI C3 24 Jul 21:31:43 21:33:33 13° 66° (ENE) 21:35:23 145.870
UWE-3 24 Jul 21:32:31 21:36:56 46° 261° (W) 21:41:17 435.000/436.395/437.385
Tancredo 1 24 Jul 21:32:54 21:35:44 46° 323° (NW) 21:38:35 437.200
nSIGHT-1 24 Jul 21:45:40 21:48:53 73° 138° (SE) 21:52:05 .
ZACube-1 24 Jul 21:47:20 21:51:44 57° 260° (W) 21:56:04 437.345
AO-85 24 Jul 21:55:38 21:58:57 22° 51° (NE) 22:02:24 145.980
AAUSAT CUBESAT 2 24 Jul 21:58:46 22:01:57 22° 265° (W) 22:05:09 437.432
EO-88 24 Jul 22:04:42 22:07:15 18° 69° (ENE) 22:09:48 145.990 - 145.960
CUBEBUG 2 24 Jul 22:13:27 22:14:41 11° 270° (W) 22:15:55 437.445
Oscar 11 24 Jul 22:14:41 22:18:44 40° 262° (W) 22:22:49 .
AO-73 24 Jul 22:28:56 22:32:24 22° 265° (W) 22:35:49 145.935
ISS 24 Jul 22:39:45 22:42:43 32° 327° (NNW) 22:45:41 437.550
UNISAT 6 24 Jul 22:48:24 22:51:24 18° 94° (E) 22:54:22 437.425
STRAND 1 24 Jul 22:50:14 22:52:26 13° 298° (WNW) 22:54:38 437.568
PRISM 24 Jul 22:53:29 22:56:11 17° 94° (E) 22:58:51 437.425
FO-29 24 Jul 22:57:33 23:04:26 52° 98° (E) 23:10:28 435.910
BEESAT 3 24 Jul 22:59:51 23:03:51 90° 58° (ENE) 23:07:47 437.485
DELFI C3 24 Jul 23:04:11 23:07:54 42° 261° (W) 23:11:40 145.870
ESTCUBE 1 24 Jul 23:18:41 23:21:11 15° 65° (ENE) 23:23:42 437.505/2401.250
nSIGHT-1 24 Jul 23:23:29 23:25:35 16° 335° (NNW) 23:27:42 .
TIGRISAT 24 Jul 23:31:49 23:36:02 54° 100° (E) 23:40:12 435.000
AO-85 24 Jul 23:35:26 23:39:23 36° 245° (WSW) 23:43:37 145.980
EO-88 24 Jul 23:37:46 23:40:45 23° 264° (W) 23:43:43 145.990 - 145.960
BEESAT 2 24 Jul 23:38:40 23:42:45 78° 60° (ENE) 23:46:45 435.950
LO-87 24 Jul 23:42:38 23:46:00 38° 74° (ENE) 23:49:25 145.935 - 145.965
RS-15 24 Jul 23:43:50 23:53:18 25° 28° (NNE) 00:02:26 29.354- 29.394
M-CUBED/EXP-1 PRIME 24 Jul 23:51:45 23:55:56 33° 102° (ESE) 00:00:08 437.505
VELOX 1 25 Jul 00:07:39 00:08:30 10° 63° (ENE) 00:09:22 145.980
AIST 2D 25 Jul 00:22:14 00:25:00 22° 95° (E) 00:27:47 435.315
UNISAT 6 25 Jul 00:24:19 00:28:11 33° 289° (WNW) 00:32:00 437.425
PRISM 25 Jul 00:27:44 00:31:32 35° 289° (WNW) 00:35:19 437.425
FO-29 25 Jul 00:43:16 00:48:55 26° 298° (WNW) 00:54:05 435.910
DUCHIFAT 1 25 Jul 00:50:09 00:52:53 17° 94° (E) 00:55:37 145.980
POLYITAN 1 25 Jul 00:51:41 00:55:01 22° 95° (E) 00:58:19 437.675
ESTCUBE 1 25 Jul 00:53:14 00:57:33 48° 260° (W) 01:01:53 437.505/2401.250
SPROUT 25 Jul 00:57:20 01:01:23 43° 73° (ENE) 01:05:28 437.525
QB50P2 25 Jul 01:04:17 01:08:10 35° 98° (E) 01:12:00 145.880/145.840
TIGRISAT 25 Jul 01:10:31 01:12:13 12° 296° (WNW) 01:13:54 435.000
EO-79 25 Jul 01:16:19 01:20:21 44° 99° (E) 01:24:21 145.935-145.965
JUGNU 25 Jul 01:16:35 01:19:13 13° 175° (S) 01:21:51 437.505
NANOSAT C BR1 25 Jul 01:16:36 01:20:32 40° 98° (E) 01:24:28 145.865
LO-87 25 Jul 01:18:33 01:19:35 11° 268° (W) 01:20:38 145.935 - 145.965
M-CUBED/EXP-1 PRIME 25 Jul 01:26:24 01:30:07 25° 296° (WNW) 01:33:53 437.505
VELOX 1 25 Jul 01:39:56 01:44:19 70° 259° (WSW) 01:48:45 145.980
DX 1 25 Jul 01:46:35 01:50:38 40° 71° (ENE) 01:54:44 434.975-435.025
AIST 2D 25 Jul 01:55:38 01:58:02 18° 290° (WNW) 02:00:26 435.315
RS-15 25 Jul 01:56:25 02:08:32 71° 56° (NE) 02:19:56 29.354- 29.394
50 SAT 25 Jul 02:21:00 02:24:14 43° 261° (W) 02:27:30 437.505
Tancredo 1 25 Jul 02:23:51 02:25:00 12° 22° (NNE) 02:26:08 437.200
DUCHIFAT 1 25 Jul 02:24:51 02:28:38 34° 288° (WNW) 02:32:23 145.980
POLYITAN 1 25 Jul 02:27:14 02:30:44 26° 290° (WNW) 02:34:12 437.675
UKube-1 25 Jul 02:29:25 02:33:42 82° 78° (ENE) 02:38:04 .
O/OREOS (USA 219) 25 Jul 02:34:27 02:38:57 81° 251° (WSW) 02:43:27 437.305
SPROUT 25 Jul 02:35:08 02:37:28 14° 268° (W) 02:39:48 437.525
QB50P2 25 Jul 02:40:53 02:43:39 17° 293° (WNW) 02:46:25 145.880/145.840
NANOSAT C BR1 25 Jul 02:53:25 02:55:54 15° 294° (WNW) 02:58:21 145.865
EO-79 25 Jul 02:53:29 02:55:42 14° 294° (WNW) 02:57:54 145.935-145.965
BUGSAT 1 25 Jul 02:54:18 02:58:20 56° 286° (WNW) 03:02:17 437.445
JUGNU 25 Jul 03:04:50 03:07:22 13° 186° (S) 03:09:55 437.505
Oscar 19 25 Jul 03:05:32 03:10:40 62° 101° (E) 03:15:47 437.125/150
DX 1 25 Jul 03:24:15 03:26:57 16° 267° (W) 03:29:40 434.975-435.025
MOZHAYETS 4 25 Jul 03:24:30 03:27:57 22° 68° (ENE) 03:31:24
Gurwin Techsat 1B 25 Jul 03:29:56 03:35:15 67° 102° (ESE) 03:40:32 435.225
ISS 25 Jul 03:33:01 03:35:24 18° 27° (NNE) 03:37:47 437.550
AO-7 25 Jul 03:39:16 03:43:12 14° 90° (E) 03:47:06 .
Tancredo 1 25 Jul 03:57:53 04:00:50 75° 38° (NE) 04:03:47 437.200
BEESAT 25 Jul 03:57:55 04:02:40 72° 75° (ENE) 04:07:26 436.000
SRMSAT 25 Jul 04:05:32 04:08:05 13° 175° (S) 04:10:39 437.500
RS-15 25 Jul 04:10:12 04:19:52 31° 257° (WSW) 04:29:11 29.354- 29.394
ITUPSAT 1 25 Jul 04:11:00 04:15:48 85° 258° (WSW) 04:20:37 437.325
nSIGHT-1 25 Jul 04:14:56 04:18:00 38° 35° (NE) 04:21:03 .
PCSat 25 Jul 04:36:32 04:37:56 11° 102° (ESE) 04:39:21 145.827
Oscar 19 25 Jul 04:46:30 04:49:26 15° 297° (WNW) 04:52:22 437.125/150
ITAMSAT 1 25 Jul 04:56:47 05:01:49 50° 100° (E) 05:06:50 435.822/435.867
MOZHAYETS 4 25 Jul 05:00:44 05:04:52 33° 263° (W) 05:09:01
YUBILEINY 25 Jul 05:07:57 05:10:38 12° 60° (ENE) 05:13:19 435.215
ISS 25 Jul 05:08:54 05:12:06 55° 223° (SW) 05:15:17 437.550
Gurwin Techsat 1B 25 Jul 05:11:41 05:14:35 15° 298° (WNW) 05:17:30 435.225
AO-7 25 Jul 05:28:36 05:37:01 82° 107° (ESE) 05:45:21 .
CUBESAT XI-V 25 Jul 05:34:24 05:38:59 81° 258° (WSW) 05:43:36 437.345
BEESAT 25 Jul 05:40:16 05:40:53 10° 270° (W) 05:41:30 436.000
KKS-1 25 Jul 05:41:56 05:46:22 69° 74° (ENE) 05:50:50 437.445
nSIGHT-1 25 Jul 05:51:54 05:54:11 18° 230° (SW) 05:56:28 .
SRMSAT 25 Jul 05:54:00 05:56:24 12° 186° (S) 05:58:47 437.500
STARS 25 Jul 06:11:58 06:16:20 60° 74° (ENE) 06:20:42 437.465
